Location: Aversa
(40.9667°N, 14.2000°E)
Time: 00:03:47
(UTC+00:00)

Daily predictions for brighter satellites

Satellite Brightness Start Highest point End
(mag) Time Altitude Azimuth Time Altitude Azimuth Time Altitude Azimuth
Cosmos 2369 Rocket 3.8 02:52:23 29° ENE 02:52:23 29° ENE 02:55:31 10° NE
Cosmos 1943 Rocket 4.4 03:12:50 15° NNE 03:12:50 15° NNE 03:13:43 10° NNE
NOSS 3-3 (A) 4.4 03:24:04 73° WSW 03:24:16 73° WSW 03:32:50 10° SSE
NOSS 3-3 (C) 4.4 03:24:08 73° WSW 03:24:22 73° WSW 03:32:55 10° SSE
MOS 1-B Rocket 4.4 03:33:03 10° SSE 03:39:11 59° ENE 03:43:22 18° N
CENTAUR R/B 3.6 03:44:24 30° NNW 03:44:24 30° NNW 03:49:05 10° NNE
Cosmos 921 Rocket 3.9 03:51:57 42° S 03:51:57 42° S 03:54:58 10° SSE
Meteor 2-13 Rocket 4.3 03:44:43 10° S 03:50:49 84° W 03:56:57 10° N
ATLAS 5 CENTAUR R/B 3.5 03:52:37 10° S 03:55:43 25° ESE 03:59:02 10° ENE
Cosmos 1503 Rocket 4.3 03:51:03 10° S 03:56:15 68° ESE 04:01:34 10° NNE
SJ-12 4.4 03:52:15 10° NNE 03:56:22 60° E 04:00:26 10° S
Cosmos 1486 Rocket 4.0 04:03:40 59° NW 04:03:40 59° NW 04:08:31 10° NNE
Cosmos 1151 Rocket 2.9 04:05:31 57° N 04:06:24 87° E 04:10:46 10° S
SL-8 R/B 3.9 04:07:03 53° NNW 04:07:47 60° NNE 04:12:30 10° ESE
Meteor 2-6 Rocket 4.2 04:05:33 12° N 04:10:36 78° E 04:16:00 10° SSE
NOSS 3-2 (C) 4.3 04:12:49 29° NNW 04:12:49 29° NNW 04:17:48 10° NNE
ATLAS 3B R/B 3.8 04:06:55 10° S 04:12:54 41° ESE 04:19:07 10° NE
DNEPR-1 R/B 4.0 04:11:34 40° NNW 04:13:27 85° ENE 04:19:23 10° SSE
Cosmos 1812 3.5 04:16:30 37° SSW 04:16:30 37° SSW 04:18:58 10° S
Okean 3 Rocket 3.5 04:11:30 10° S 04:16:02 82° W 04:20:36 10° N
Cosmos 1766 Rocket 3.4 04:14:51 10° SSW 04:19:09 66° W 04:23:28 10° N
Cosmos 1833 4.2 04:15:45 22° NNW 04:19:33 82° ENE 04:25:18 10° SSE
BREEZE-M DEB (TANK) 3.6 04:21:03 39° WNW 04:22:55 69° SSW 04:39:39 10° SE
SL-27 R/B 4.0 04:21:23 16° N 04:23:45 35° ENE 04:27:01 10° SE
Envisat 2.9 04:20:18 10° N 04:25:22 70° WNW 04:30:24 10° SSW
Cosmos 2263 4.4 04:24:34 27° WSW 04:27:23 47° WNW 04:32:56 10° NNE
Cosmos 1328 Rocket 3.4 04:25:33 21° NNW 04:28:26 77° W 04:32:44 10° S
SAR-Lupe-3 4.4 04:28:06 10° N 04:31:40 66° WNW 04:35:14 10° SSW
Cosmos 2098 Rocket 3.5 04:32:19 39° WNW 04:32:24 39° WNW 04:37:06 10° N
Cosmos 1174 3.8 04:31:20 10° SSW 04:34:14 53° ESE 04:37:13 10° NE
Cosmos 2369 Rocket 2.9 04:34:16 30° WNW 04:34:26 30° WNW 04:39:21 10° N
SL-19 R/B 4.5 04:31:47 10° S 04:37:09 49° WSW 04:41:27 16° NNW
Meteor 1-10 Rocket 4.1 04:32:30 10° N 04:38:04 84° W 04:43:37 10° S
COSMO-SKYMED 1 2.6 04:35:34 10° S 04:39:49 56° W 04:42:52 18° NNW
Cosmos 1656 Rocket 4.1 04:37:55 26° WSW 04:40:06 36° WNW 04:45:06 10° N
BREEZE-M DEB (TANK) 4.4 04:31:11 21° WNW 04:40:21 72° NNE 04:44:29 10° ESE
USA 215 3.6 04:35:07 10° ESE 04:41:31 61° NE 04:46:50 16° NW
Cosmos 2279 Rocket 4.0 04:38:00 10° NNW 04:44:00 55° W 04:50:01 10° SSW
H-2A R/B 4.0 04:41:59 10° N 04:46:54 23° WSW 04:48:43 10° SW
BREEZE-M DEB (TANK) 3.7 04:30:25 10° WSW 04:45:58 86° NNW 04:49:52 10° ENE
Meteor 1-31 Rocket 3.0 04:42:12 10° N 04:45:58 47° WNW 04:49:44 10° SSW
SL-4 R/B 4.3 04:45:06 10° S 04:47:51 22° SE 04:50:42 10° E
DELTA 2 R/B (1) 3.6 04:46:42 22° W 04:50:21 79° S 04:55:54 10° E
IRAS Rocket 4.5 04:44:53 10° SSE 04:50:21 71° ENE 04:55:49 10° N
Nadezhda 4 Rocket 4.0 04:44:57 10° S 04:51:07 89° WNW 04:57:23 10° N
CZ-4B R/B 4.2 04:49:11 10° ESE 04:51:16 16° ENE 04:53:19 10° NNE
CZ-2C R/B 2.9 04:46:02 10° S 04:51:20 48° W 04:56:33 10° NNW
Cosmos 1408 Rocket 3.4 04:47:23 10° SSW 04:51:38 63° W 04:55:55 10° N
Cosmos 1943 Rocket 4.2 04:54:23 10° NNW 04:54:23 10° NNW 04:54:43 10° NNW
Cosmos 1354 Rocket 4.4 04:53:21 10° SW 04:58:19 41° WNW 05:03:20 10° N
Cosmos 1743 Rocket 3.6 04:57:01 10° S 05:01:24 85° E 05:05:46 10° N
Meteor 2-15 4.5 04:59:24 10° NNW 05:05:19 56° W 05:11:12 10° S
Cosmos 2228 Rocket 4.1 05:01:28 10° N 05:05:51 50° E 05:10:16 10° SSE
Landsat 5 4.2 05:03:32 10° SSW 05:07:43 38° W 05:11:53 10° NNW
Cosmos 2227 Rocket 4.4 05:04:24 10° N 05:08:24 19° NE 05:12:23 10° E
Cosmos 1092 Rocket 4.3 05:02:30 10° S 05:08:43 74° E 05:15:02 10° N
SJ 16-02 1.4 05:06:57 10° SSW 05:11:14 55° WNW 05:15:33 10° N
Cosmos 1515 Rocket 3.8 05:08:10 10° NNW 05:12:20 45° W 05:16:27 10° SSW
Meteor 1-20 Rocket 4.4 05:06:58 10° S 05:12:31 79° E 05:18:12 10° NNE
ADEOS 3.7 05:09:15 10° N 05:14:18 50° WNW 05:19:19 10° SW
Cosmos 1602 3.7 05:17:10 10° S 05:20:58 90° WNW 05:24:47 10° N
CZ-4C R/B 4.0 05:21:24 10° SSW 05:23:57 22° W 05:26:28 10° NW
NOAA 11 4.5 05:20:40 10° N 05:25:53 46° WNW 05:31:05 10° SW
COSMOS 2487 2.3 05:24:58 10° NNW 05:28:19 89° ENE 05:31:40 10° SSE
Cosmos 1538 Rocket 4.0 05:23:08 10° NNW 05:28:24 90° ENE 05:33:35 10° SSE
Cosmos 1500 Rocket 3.9 05:24:57 10° SSW 05:29:12 44° WNW 05:33:29 10° N
CZ-2C R/B 3.2 05:28:46 10° N 05:33:29 47° WNW 05:38:23 10° SW
PSLV R/B 4.5 05:30:13 10° NNE 05:34:09 62° E 05:38:09 10° S
Sich 1 3.0 05:31:01 10° S 05:35:18 84° W 05:39:36 10° N
AQUARIUS 4.2 05:31:22 10° NNE 05:35:54 89° SE 05:40:22 10° SSW
CENTAUR R/B 4.4 05:32:33 10° NW 05:35:56 14° NNW 05:39:34 10° NNE
SMAP 3.0 05:31:41 10° N 05:36:22 78° WNW 05:41:00 10° SSW
ATLAS 5 CENTAUR R/B 2.3 05:36:47 10° WSW 05:40:08 28° NW 05:43:50 10° NNE
CZ-4B R/B 3.4 05:38:08 10° N 05:41:17 30° WNW 05:44:28 10° SW
Cosmos 1805 Rocket 3.6 05:37:02 10° SSW 05:41:20 55° W 05:45:39 10° N
H-2A R/B 2.2 05:37:32 10° S 05:41:42 54° W 05:46:00 10° NNW
H-2A R/B 2.8 05:37:02 10° NNE 05:41:53 57° E 05:46:45 10° S
Cosmos 1500 3.1 05:39:22 10° SSW 05:43:10 76° W 05:46:58 10° N
Meteor 1-27 Rocket 4.3 05:38:13 10° NNW 05:43:23 37° W 05:48:38 10° SSW
Cosmos 1707 Rocket 4.2 05:39:53 10° N 05:44:18 63° E 05:48:43 10° SSE
